COSMOS 755

Satellite information

Favourite Embed

Satellite Type and Status

PAYLOADIN ORBIT

Key statistics

Satellite COSMOS 755 at a glance.

Uptime

18166

Days in orbit

Revolutions

≈ 13.7

Per day

Orbit

LEO

Low Earth Orbit

Inclination

82.9

Latest

Satellite identification and parameters

Extended collection of information and parameters for COSMOS 755.

Object identification

Identified? True

Debris? False

Object name: COSMOS 755

International designator: 1975-074A

Object number (NORAD): 8072

Object ID (CCSDS): 8072

Country: COMMONWEALTH OF INDEPENDENT STATES (CIS)

Current information (Y/N): Y

RCS size: LARGE

Orbital parameters

Period: 104.79 minutes

Inclination: 82.9085 deg

SMA: 7362.764 km

Apoapsis: 1004.9 km

Periapsis: 964.358 km

RAAN: 26.1021 deg

Eccentricy: 0.0027532

Argument of periapsis: 190.1884 deg

Mean anomaly: 181.496 deg

Mean motion: 13.74173156 rev/day

Mean motion (dot): 0.00000058 rev/day2

B* drag term: 0.000045622 1/REarth

Two-line elements (TLE)

Creation date: May 8, 2025, 3:01 a.m.

Reference frame: TEME

Reference center: EARTH

Epoch: May 7, 2025, 10:59 p.m. UTC

TLE line 0: 0 COSMOS 755

TLE line 1: 1 08072U 75074A 25127.95832531 .00000058 00000-0 45622-4 0 9999

TLE line 2: 2 08072 82.9085 26.1021 0027532 190.1884 181.4960 13.74173156492858

Live tracking on map

Real-time ground track for satellite COSMOS 755.

In-orbit conjunctions

A list of the most updated potential collisions computed for object COSMOS 755.

Target Orbit TCA Probability of collision Miss distance Type
FENGYUN 1C DEB SSO 2025-01-18 11:06:34 0.001000894 228.0 (m) DEBRIS
SL-8 R/B LEO 2024-09-02 11:33:07 0.0007072898 467.0 (m) ROCKET BODY
COSMOS 1238 LEO 2024-05-30 04:14:04 0.0002943218 736.0 (m) PAYLOAD

Associated space launch

Navigation satellite providing location information for the Tsiklon-B navigation system

COSMOS 755 was lifted into orbit during the mission ‘Kosmos-3M | Parus 3’, on board a Kosmos-3M space rocket.

The launch took place on Aug. 14, 1975, 1:29 p.m. from 132/1 (132L).

For more information about the launch, click the button.

Launch to space Kosmos-3M | Parus 3
Kosmos-3M | Parus 3

Agency: N/A

Status: Launch Successful

Launch date: Aug. 14, 1975, 1:29 p.m. UTC

Rocket: Kosmos-3M

Launch pad: 132/1 (132L)

Location: Plesetsk Cosmodrome, Russian Federation

...

Latest news about this satellite

There are no fresh news available about this satellite. Check back as we update our databases every day.


Newsletter sign-up

Weekly statistics, charts and insights to help you stay on top of the space industry.